Location: *
(47.7167°N, 1.7333°W)
Time: 07:34:44
(UTC+00:00)

MOS 1 - Visible Passes

Search period start: 11 August 2020 00:00
Search period end: 21 August 2020 00:00
Orbit: 879 x 891 km, 99.2° (Epoch: 10 August)

Date Brightness Start Highest point End Pass type
(mag) Time Alt. Az. Time Alt. Az. Time Alt. Az.
11 Aug 5.5 20:33:01 10° SSW 20:38:19 42° W 20:43:41 10° NNW visible
12 Aug 5.4 20:31:08 10° S 20:36:29 43° W 20:41:53 10° NNW visible
13 Aug 5.4 20:29:17 10° S 20:34:40 45° W 20:40:06 10° NNW visible
14 Aug 5.3 20:27:26 10° S 20:32:50 46° W 20:38:18 10° NNW visible
15 Aug 5.2 20:25:34 10° S 20:31:00 48° W 20:36:30 10° NNW visible
16 Aug 5.2 20:23:43 10° S 20:29:10 50° W 20:34:42 10° NNW visible
17 Aug 5.1 20:21:52 10° S 20:27:21 51° W 20:32:53 10° NNW visible
18 Aug 5.1 20:20:01 10° S 20:25:32 53° W 20:31:06 10° NNW visible
19 Aug 5.0 20:18:11 10° S 20:23:42 55° WSW 20:29:17 10° NNW visible
20 Aug 4.9 20:16:20 10° S 20:21:53 57° WSW 20:27:29 10° NNW visible
